LiveATC.Net - Listen to live air traffic control over the Internet! Contact LiveATC.net for advertising information


ICAO: SBUL  IATA: UDI   Airport: Uberlandia Airport
City: Uberlandia
Country: Brazil   Continent: South America
SBUL METAR Weather: SBUL 111800Z 28009KT 9999 BKN045 31/19 Q1015
SBUL Flight Activity (FlightAware)
SBUL Tower
Feed Status: DOWN
Last heard on: 2016-01-20 14:16:04 (22 days 4 hours 48 minutes ago)
SBUL Tower Audio Archives
FacilityFrequency
Uberlandia Tower118.800

NOTE: Tower staffed Monday-Friday

NOTICE

Unauthorized use prohibited. See LiveATC.net Terms of Service


Find LiveATC Audio Streams


Airport/ARTCC Code

Frequency
(e.g., 124.400, 128.75)
Site-wide search

Browse LiveATC Feeds
LiveATC Coverage Map
Top 50 LiveATC Feeds
Bad Weather Areas

LiveATC FAQ
Offer a LiveATC Feed
Contact LiveATC.net
Press Inquiries

LiveATC on iPhone
LiveATC on Android

Windows Phone
Windows 8/10

LiveATC Mobile
(Mobile browser)

ATC Audio Archives
Interesting Recordings

LiveATC Forums


Home Page
About LiveATC.net
Make a Donation
LiveATC Store

Terms of Use
Privacy Policy

Canadian Air Freqs

AIRMETs/SIGMETs

FAA Airport Status
Nat'l Airspace Status
Arrival Demand Charts


Server Software By:
Icecast.org
Liquidsoap

Please make a donation to help us keep growing!